JI1UWB-13 Weather Reports


time (UTC)temp
C
wind
direction
speed
KPH
gust
KPH
rain 1hr
cm
rain 24hr
cm
rain mn
cm
humidity
%
barometer
mb
20260502130520 21 0.0 0.0 0.00 0.00 0.00 34 1012.4
20260502123518 21 260 0.0 1.6 0.00 0.00 0.00 32 1012.2
20260502122516 21 296 0.0 1.6 0.00 0.00 0.00 31 1012.0
20260502121539 21 234 0.0 0.0 0.00 0.00 0.00 30 1012.0
20260502120517 21 180 0.0 0.0 0.00 0.00 0.00 29 1011.8
20260502115516 21 180 0.0 0.0 0.00 0.00 0.00 28 1011.6
20260502114518 22 180 0.0 0.0 0.00 0.00 0.00 27 1011.5
20260502113517 21 180 0.0 1.6 0.00 0.00 0.00 28 1011.3
20260502112537 21 0.0 0.0 0.00 0.00 0.00 28 1011.1
20260502111518 22 122 0.0 1.6 0.00 0.00 0.00 28 1010.8
20260502110517 22 21 0.0 1.6 0.00 0.00 0.00 27 1010.8
20260502105517 22 39 0.0 1.6 0.00 0.00 0.00 27 1010.7
20260502104559 22 105 0.0 1.6 0.00 0.00 0.00 27 1010.4
20260502103518 22 101 0.0 1.6 0.00 0.00 0.00 27 1010.4
20260502102537 22 26 0.0 0.0 0.00 0.00 0.00 26 1010.2
20260502101518 22 24 0.0 1.6 0.00 0.00 0.00 26 1010.2
20260502100537 22 48 0.0 1.6 0.00 0.00 0.00 26 1010.2
20260502090517 24 64 0.0 3.2 0.00 0.00 0.00 24 1009.3
20260502071518 28 8 1.6 4.8 0.00 0.00 0.00 18 1008.0
20260502070516 29 22 1.6 4.8 0.00 0.00 0.00 17 1007.9
20260502065539 29 41 1.6 3.2 0.00 0.00 0.00 17 1007.8
20260502064518 30 214 1.6 3.2 0.00 0.00 0.00 17 1007.8
20260502063526 30 25 1.6 6.4 0.00 0.00 0.00 16 1007.6
20260502062519 30 356 3.2 6.4 0.00 0.00 0.00 17 1007.4
20260502061517 29 20 3.2 9.7 0.00 0.00 0.00 17 1007.2
20260502060516 30 303 1.6 3.2 0.00 0.00 0.00 17 1007.1
20260502055519 30 344 1.6 3.2 0.00 0.00 0.00 17 1006.9
20260502054537 30 313 1.6 8.0 0.00 0.00 0.00 17 1006.9
20260502053516 30 59 1.6 3.2 0.00 0.00 0.00 18 1006.8
20260502052539 29 24 1.6 6.4 0.00 0.00 0.00 18 1006.7
20260502051537 30 33 3.2 6.4 0.00 0.00 0.00 18 1006.6
20260502050523 29 2 1.6 4.8 0.00 0.00 0.00 18 1006.4
20260502045519 29 10 3.2 9.7 0.00 0.00 0.00 18 1006.3
20260502044517 28 8 1.6 11.3 0.00 0.00 0.00 18 1006.2
20260502043517 29 9 3.2 9.7 0.00 0.03 0.00 18 1006.3
20260502042518 28 22 1.6 3.2 0.00 0.03 0.00 18 1006.3
20260502041517 28 12 3.2 11.3 0.00 0.03 0.00 19 1006.2
20260502040516 27 346 3.2 8.0 0.00 0.03 0.00 19 1006.3
20260502035519 28 313 3.2 9.7 0.00 0.03 0.00 19 1006.3
20260502034517 28 33 1.6 6.4 0.00 0.03 0.00 19 1006.3
20260502033516 27 313 3.2 11.3 0.00 0.05 0.00 19 1006.2
20260502032518 27 24 3.2 8.0 0.00 0.08 0.00 20 1005.9
20260502031537 27 1 3.2 8.0 0.00 0.08 0.00 21 1005.6
20260502030516 27 20 3.2 9.7 0.00 0.08 0.00 21 1005.7
20260502025518 27 332 3.2 9.7 0.00 0.10 0.00 21 1005.7
20260502024517 27 12 1.6 8.0 0.00 0.10 0.00 22 1005.5
20260502023516 26 297 3.2 8.0 0.00 0.13 0.00 23 1005.3
20260502022518 26 298 4.8 12.9 0.00 0.13 0.00 23 1005.2
20260502021517 26 339 3.2 11.3 0.00 0.13 0.00 23 1005.0
20260502020516 26 358 3.2 8.0 0.00 0.18 0.00 23 1005.0
20260502015518 26 302 3.2 9.7 0.00 0.18 0.00 24 1004.7
20260502014517 26 302 1.6 6.4 0.00 0.20 0.00 23 1004.6
20260502013518 26 330 1.6 6.4 0.00 0.23 0.00 24 1004.6
20260502012516 26 308 1.6 6.4 0.00 0.25 0.00 25 1004.7
20260502011518 25 303 1.6 6.4 0.00 0.28 0.00 25 1004.7
20260502010516 25 287 1.6 6.4 0.00 0.28 0.00 25 1004.6
20260502005519 25 338 1.6 3.2 0.00 0.30 0.00 28 1004.6
20260502004517 24 269 1.6 9.7 0.00 0.30 0.00 30 1004.4
20260502003516 23 287 3.2 6.4 0.00 0.30 0.00 31 1004.4
20260502002518 23 230 1.6 8.0 0.00 0.33 0.00 32 1004.1
20260502001518 23 249 1.6 6.4 0.00 0.38 0.00 32 1004.3
20260502000516 23 283 1.6 6.4 0.00 0.51 0.00 31 1004.2
20260501235539 23 257 1.6 9.7 0.00 0.58 0.00 31 1004.2
20260501234517 23 310 1.6 4.8 0.00 0.66 0.00 33 1004.2
20260501233516 22 265 1.6 3.2 0.00 0.79 0.00 33 1004.1
20260501232518 22 280 1.6 3.2 0.00 0.86 0.00 35 1003.9
20260501231517 22 337 1.6 1.6 0.00 0.94 0.00 35 1003.7
20260501230516 21 262 0.0 3.2 0.00 1.04 0.00 37 1003.6
20260501225518 21 273 1.6 3.2 0.00 1.09 0.00 39 1003.3
20260501224517 21 290 0.0 1.6 0.00 1.17 0.00 39 1003.2
20260501223519 21 272 0.0 1.6 0.00 1.19 0.00 41 1003.1
20260501222518 20 270 1.6 3.2 0.00 1.27 0.00 42 1003.0
20260501221517 19 285 1.6 3.2 0.00 1.32 0.00 43 1002.8
20260501220519 20 299 1.6 4.8 0.00 1.37 0.00 44 1002.7
20260501215518 20 310 0.0 1.6 0.00 1.40 0.00 45 1002.4
20260501214517 19 316 0.0 3.2 0.00 1.45 0.00 46 1002.2
20260501213518 19 258 0.0 1.6 0.00 1.50 0.00 47 1002.0
20260501212517 18 341 0.0 1.6 0.00 1.57 0.00 50 1001.9
20260501211536 17 309 0.0 3.2 0.00 1.60 0.00 54 1001.7
20260501210519 16 222 0.0 1.6 0.00 1.60 0.00 58 1001.6
20260501205517 16 51 0.0 1.6 0.00 1.60 0.00 61 1001.5
20260501204516 15 119 0.0 1.6 0.00 1.60 0.00 62 1001.3
20260501203518 15 298 0.0 3.2 0.00 1.63 0.00 62 1001.0
20260501202517 15 310 0.0 1.6 0.00 1.63 0.00 62 1000.6
20260501201516 15 322 1.6 6.4 0.00 1.63 0.00 62 1000.5
20260501200518 15 12 1.6 3.2 0.00 1.63 0.00 66 1000.2
20260501195517 13 242 1.6 3.2 0.00 1.65 0.00 76 999.8
20260501194519 13 279 0.0 1.6 0.00 1.68 0.00 82 999.8
20260501193518 13 238 1.6 3.2 0.00 1.73 0.00 83 999.5
20260501192517 13 275 1.6 3.2 0.00 1.75 0.00 83 999.3
20260501191515 13 261 1.6 3.2 0.00 1.78 0.00 83 999.1
20260501190518 13 294 1.6 3.2 0.00 1.83 0.00 83 998.9
20260501185517 13 285 1.6 3.2 0.00 1.85 0.00 82 998.6
20260501184519 13 329 1.6 3.2 0.00 1.88 0.00 81 998.3
20260501183538 13 338 0.0 3.2 0.00 1.93 0.00 80 998.0
20260501182517 13 214 1.6 3.2 0.00 1.98 0.00 80 997.7
20260501181519 13 314 0.0 1.6 0.00 2.01 0.00 79 997.4
20260501180518 13 290 1.6 3.2 0.00 2.03 0.00 78 997.0
20260501175517 13 269 1.6 4.8 0.00 2.03 0.00 77 997.0
20260501174519 14 252 1.6 4.8 0.00 2.03 0.00 77 996.9
20260501173518 14 280 1.6 4.8 0.00 2.03 0.00 77 996.6
20260501172517 14 250 1.6 6.4 0.00 2.03 0.00 77 996.4
20260501171519 14 291 1.6 4.8 0.00 2.06 0.00 78 996.2
20260501170517 14 260 1.6 8.0 0.00 2.06 0.00 80 996.0
20260501165516 13 281 1.6 3.2 0.00 2.06 0.00 84 995.8
20260501164518 13 232 1.6 3.2 0.00 2.11 0.00 89 995.9
20260501163518 13 21 0.0 1.6 0.00 2.11 0.00 98 996.0
20260501162516 13 17 1.6 3.2 0.00 2.13 0.00 98 996.0
20260501161519 13 205 0.0 0.0 0.00 2.13 0.00 95 996.0
20260501160517 13 43 0.0 1.6 0.00 2.16 0.00 94 996.0
20260501155517 13 297 0.0 3.2 0.00 2.18 0.00 93 996.0
20260501154526 13 192 1.6 3.2 0.00 2.21 0.00 94 996.0
20260501153538 13 196 0.0 1.6 0.00 2.21 0.00 94 996.2
20260501152517 13 212 0.0 1.6 0.00 2.21 0.00 93 996.4
20260501151518 13 235 0.0 1.6 0.00 2.21 0.00 93 996.4
20260501150517 13 0.0 0.0 0.00 2.24 0.00 92 996.2
20260501145536 13 262 0.0 1.6 0.00 2.24 2.24 91 996.2
20260501144519 13 253 1.6 3.2 0.00 2.24 2.24 91 996.1